Location: Kielce
(50.8833°N, 20.6167°E)
Time: 22:04:41
(UTC+02:00)

SR - Pass Details

Date: 27 April 2021
Orbit: 573 x 882 km, 66.7° (Epoch: 09 May)

Event Time Altitude Azimuth Distance (km) Brightness Sun altitude
Rises 06:10:23 0° 198° (SSW) 3,339 ? 6.9°
Reaches altitude 10° 06:12:48 10° 193° (SSW) 2,446 ? 7.3°
Maximum altitude 06:18:20 52° 118° (ESE) 1,068 ? 8.1°
Drops below altitude 10° 06:24:05 10° 44° (NE) 2,548 ? 9.0°
Sets 06:26:39 0° 40° (NE) 3,491 ? 9.4°
